Regional Weather Roundup
Issued by NWS

Home | Current Version | Previous Version | Text Only | Print | Product List | Glossary Off
Versions: 1 2 3 4 5 6 7 8 9 10 11 12 13 14 15 16 17 18 19 20 21 22 23 24 25 26 27 28 29 30 31 32 33 34 35 36 37 38 39 40 41 42 43 44 45 46 47 48 49 50

000
ASUS43 KIND 270109
RWRIN

WEATHER ROUNDUP FOR INDIANA
NATIONAL WEATHER SERVICE INDIANAPOLIS IN
800 PM EST THU FEB 26 2015

NOTE: "FAIR" INDICATES FEW OR NO CLOUDS BELOW 12,000 FEET WITH NO
SIGNIFICANT WEATHER AND/OR OBSTRUCTIONS TO VISIBILITY.

* - STATION DOES NOT REPORT WEATHER SUCH AS PRECIPITATION OR FOG.

+ - STATION NOT QUALITY CONTROLLED BY THE NATIONAL WEATHER SERVICE.
    USE DATA WITH CAUTION...ESPECIALLY DEWPOINT AND RELATIVE
    HUMIDITY OBSERVATIONS.

INZ001>003-010>013-019-020-270200-
NORTHWEST INDIANA

CITY           SKY/WX    TMP DP  RH WIND       PRES   REMARKS
GARY /AIRPORT/ MOCLDY    16  -2  45 NW5       30.35R WCI   9
KNOX *+          N/A     10  -6  48 CALM      30.32R
LA PORTE +     LGT SNOW  10   5  80 CALM      30.32R
MICHIGAN CITY+ LGT SNOW  14   9  79 CALM      30.33R VSB 3/4
MONTICELLO +   CLEAR      7   1  74 N6        30.31R WCI  -3
RENSSELAER +   LGT SNOW  16  14  93 CALM      30.34R
VALPARAISO     LGT SNOW  14  11  87 N5        30.32R VSB 3/4 WCI   6

$$

LMZ046-743>745-270200-
SOUTHERN LAKE MICHIGAN

STATION/POSITION TIME  TEMP WIND        PRES
                       AIR  DIR/SP/G
                 (UTC) (F)  (DEG/KT/KT) (MB)
MICHIGAN CITY    0100   14  340/  9/ 12   N/A

$$

INZ004-005-014>016-021>024-270200-
NORTH CENTRAL INDIANA

CITY           SKY/WX    TMP DP  RH WIND       PRES   REMARKS
ELKHART        CLEAR     10  -6  48 N7        30.31R WCI   0
GOSHEN         CLEAR      9  -4  55 NW9       30.29R WCI  -4
LOGANSPORT +   CLEAR     10   1  67 N6        30.32R WCI   1
PERU/GRISSOM   PTCLDY    11   1  63 N7        30.29R WCI   0
ROCHESTER +    PTCLDY    14   3  62 N6        30.31R WCI   5
SOUTH BEND     PTCLDY     9  -2  61 N5        30.31R WCI   1
WARSAW +       CLEAR     10  -4  52 NW9       30.29R WCI  -2

$$

INZ006>009-017-018-025>027-270200-
NORTHEAST INDIANA

CITY           SKY/WX    TMP DP  RH WIND       PRES   REMARKS
ANGOLA *+      CLEAR      9   0  66 N3        30.25R
AUBURN +       MOCLDY    14   3  62 CALM      30.27R
FORT WAYNE     LGT SNOW  14   9  80 NW5       30.28R WCI   6
HUNTINGTON +   MOCLDY    13   3  65 NW3       30.28R

$$

INZ028-029-035-036-043>045-051>053-270200-
WEST CENTRAL INDIANA

CITY           SKY/WX    TMP DP  RH WIND       PRES   REMARKS
CRAWFORDSVL +  PTCLDY     7  -4  61 NW5       30.32R WCI  -2
GREENCASTLE +  MOCLDY    14   7  73 NW7       30.31R WCI   4
LAFAYETTE      CLEAR     11   3  70 CALM      30.34R
TERRE HAUTE    PTCLDY    16   5  62 N8        30.34R WCI   5

$$

INZ030>032-037>040-046>048-054>057-064-065-270200-
CENTRAL INDIANA

CITY           SKY/WX    TMP DP  RH WIND       PRES   REMARKS
CP ATTERBURY + PTCLDY    18  10  73 N3        30.30R
COLUMBUS       PTCLDY    10   3  72 N7        30.31R WCI   0
FRANKFORT +    CLEAR     10   2  72 NW6       30.32R WCI   0
GREENWOOD *+   CLOUDY    18   5  57 N6        30.29R WCI   9
INDIANAPOLIS   LGT SNOW  17  10  74 N13       30.29R WCI   4
-EAGLE CREEK   CLOUDY    15  10  80 NW10      30.29R WCI   2
KOKOMO *+      PTCLDY    12   1  62 N8        30.30R WCI   1
MARION +       PTCLDY    14   5  69 N7        30.29R WCI   3
MT COMFORT *+  MOCLDY    10   1  67 N3        30.29R
SHELBYVILLE    PTCLDY    14   6  70 N3        30.29R
ZIONSVILLE +   MOCLDY    13   6  76 N8        30.29R WCI   1

$$

INZ033-034-041-042-049-050-058-059-270200-
EAST CENTRAL INDIANA

CITY           SKY/WX    TMP DP  RH WIND       PRES   REMARKS
MUNCIE         CLOUDY    14  10  84 W3        30.27R

$$

INZ060-061-067>069-081>083-085>088-270200-
SOUTHWEST INDIANA

CITY           SKY/WX    TMP DP  RH WIND       PRES   REMARKS
EVANSVILLE     CLEAR     24  12  60 NW14G21   30.34R WCI  12
HUNTINGBURG *+ PTCLDY    23  14  68 NW10      30.31R WCI  12
WASHINGTON +   LGT SNOW  20  17  86 N10       30.32R WCI   9

$$

INZ062-063-066-070>080-084-089>092-270200-
SOUTH CENTRAL AND SOUTHEAST INDIANA

CITY           SKY/WX    TMP DP  RH WIND       PRES   REMARKS
BLOOMINGTON    MOCLDY    13   7  77 N3        30.29R
NORTH VERNON + CLOUDY    18   9  68 N9        30.29R WCI   6
SEYMOUR +      CLOUDY    19   9  63 N13       30.30R WCI   7

$$




USA.gov is the U.S. government's official web portal to all federal, state and local government web resources and services.